Temperature
19 18 18 18 18 18 18 18 18 18 18 18 18 18 18 19 19 19 19 19 19 19 19 19 18 18 18 18 18 17 17 17 17 17 17 17 17 17 17 17 17 17 17
19 18 18 18 18 18 18 18 18 18 18 18 18 18 18 19 19 18 19 19 19 19 19 19 18 18 18 18 18 18 18 17 17 17 17 17 17 17 17 17 17 17 17
19 19 18 18 18 18 18 18 18 18 18 18 18 18 19 19 19 19 19 19 19 19 19 19 19 18 18 18 18 18 18 18 18 17 17 17 17 17 17 17 17 17 17
19 18 18 18 18 18 18 18 18 18 18 18 18 18 19 19 19 19 19 19 19 18 19 19 19 18 18 18 18 18 18 18 18 18 17 17 17 17 17 17 17 17 17
18 19 18 18 18 18 18 18 18 18 18 18 18 19 19 19 19 19 19 19 19 18 18 18 18 18 18 18 18 18 18 18 18 18 17 17 17 17 17 17 17 17 17
19 19 19 18 18 18 18 18 18 18 18 18 19 19 19 19 19 19 19 19 19 19 18 19 18 19 18 18 18 18 18 18 18 18 18 17 17 17 17 17 17 17 17
19 19 19 18 18 18 18 18 18 18 18 19 18 19 19 19 19 19 19 19 19 19 19 19 19 19 19 18 18 18 18 18 18 18 18 18 17 17 17 17 17 17 17
19 19 19 19 19 19 18 18 18 18 19 18 18 18 19 19 19 20 19 19 19 19 19 19 19 18 18 18 18 18 18 18 18 18 18 18 17 17 17 17 17 17 17
19 19 19 19 19 19 19 19 19 19 19 19 19 19 19 19 19 20 20 20 19 19 19 19 19 19 18 18 18 18 18 18 18 18 18 18 18 17 17 17 17 17 17
19 19 19 19 19 19 19 19 19 19 19 19 19 19 19 19 19 19 19 20 19 19 19 19 19 19 18 18 18 18 18 18 18 18 18 18 18 17 17 17 17 17 17
19 19 19 19 19 19 19 19 19 19 19 19 19 19 19 19 19 19 19 19 19 19 19 19 19 19 19 18 18 18 18 18 18 18 18 18 18 18 17 17 17 17 17
19 19 19 19 19 19 19 19 19 19 19 19 19 19 19 19 19 19 19 19 19 19 19 19 19 19 19 19 18 18 18 18 18 18 18 18 18 18 17 17 17 17 17
19 19 19 19 19 19 19 19 19 19 19 19 19 19 19 19 19 19 19 19 19 19 19 19 19 19 19 19 18 18 18 18 18 18 18 18 18 18 17 17 17 17 17
19 19 19 19 19 19 19 19 19 19 19 19 19 19 19 19 19 19 19 19 18 18 18 19 19 19 18 18 18 18 18 18 18 18 18 18 18 17 17 17 17 17 17
20 20 19 19 19 19 19 19 19 19 18 19 19 19 19 19 19 19 18 18 18 18 18 18 19 19 18 18 18 18 18 18 18 18 18 18 17 17 17 17 17 17 17
20 20 19 19 19 19 19 19 19 19 18 18 18 18 18 18 18 18 18 18 18 18 18 18 18 18 18 18 18 18 18 18 17 17 17 17 17 17 17 17 17 16 16
19 19 19 19 19 19 19 19 19 18 18 18 18 18 18 18 18 18 18 18 18 18 18 18 18 18 18 18 18 18 17 17 17 17 17 17 17 17 17 17 17 16 16
19 19 19 19 19 19 18 18 18 18 18 18 18 18 18 18 18 18 18 18 18 18 18 18 18 18 18 18 18 17 17 17 17 17 17 17 17 17 17 17 16 16 16
19 19 18 18 18 18 18 18 18 18 18 18 18 18 18 18 18 18 18 18 18 17 17 17 17 17 17 17 17 17 17 17 16 16 17 17 17 17 16 16 16 16 16
18 18 18 18 18 18 18 18 18 18 18 18 17 17 17 17 17 17 17 17 17 17 17 17 17 17 17 17 17 16 16 16 16 16 16 16 16 16 16 16 16 16 16
18 18 18 18 18 18 18 18 17 17 17 17 17 17 17 17 17 17 17 17 17 17 16 16 16 16 16 16 16 16 16 16 16 16 16 16 16 16 16 16 16 15 15
18 18 18 17 17 17 17 17 17 17 17 17 17 17 17 16 17 17 17 16 16 16 16 16 16 16 16 16 16 15 15 15 15 15 15 15 15 15 15 15 15 15 15
17 17 17 17 17 17 17 17 17 17 17 16 16 16 16 16 16 16 16 16 16 16 16 16 15 16 15 15 15 15 15 15 15 15 15 14 15 15 15 15 15 15 15
17 17 17 17 17 17 17 17 17 16 16 16 16 16 16 16 16 16 16 15 15 15 15 15 15 15 15 15 15 15 14 14 14 14 14 14 14 14 14 14 14 14 14
17 17 17 17 16 16 16 16 16 16 16 16 16 15 15 15 15 15 15 15 15 15 15 15 15 15 15 14 14 14 14 14 13 14 14 13 14 14 14 14 14 14 14
16 16 16 16 16 16 16 16 16 16 16 15 15 15 15 15 15 15 15 14 14 14 14 14 14 14 14 14 14 14 13 13 13 13 13 13 13 13 13 13 13 13 13
Wind_Speed
6 6 4 5 6 7 7 5 4 4 4 4 4 4 2 2 2 5 8 14 15 14 13 13 12 12 12 12 12 11 11 11 11 11 11 11 11 11 11 11 11 10 11
5 5 5 4 4 5 5 4 3 4 3 3 3 3 2 2 2 5 7 10 13 15 14 14 14 13 13 13 12 13 13 13 13 13 13 12 12 12 12 12 12 12 12
6 5 5 5 4 6 6 4 4 3 3 3 3 3 3 3 3 4 7 8 10 13 15 15 15 14 14 14 13 13 14 14 14 14 14 14 14 14 14 13 13 13 12
7 5 4 5 6 6 5 4 4 3 3 2 3 3 2 3 4 5 7 9 9 10 13 16 15 15 15 15 14 14 14 14 15 15 15 15 15 14 14 14 14 14 14
8 5 4 4 5 4 4 5 5 3 3 2 3 3 3 3 4 6 5 7 8 9 10 13 16 16 16 15 15 15 15 15 15 15 16 16 16 15 15 15 15 15 15
7 5 4 5 5 4 4 3 4 3 3 3 4 3 3 4 4 4 4 5 7 9 10 11 12 13 16 15 15 15 15 14 15 15 16 17 17 17 17 16 16 16 16
6 4 3 5 4 4 4 4 3 4 4 3 2 2 3 4 5 4 4 4 4 6 8 10 11 10 11 16 17 16 15 14 14 14 15 17 17 17 17 17 17 17 17
6 7 5 5 5 4 4 4 4 3 4 3 2 2 1 2 3 5 5 5 5 4 5 9 10 10 9 10 13 17 15 14 14 14 14 15 16 16 16 16 16 16 16
6 4 5 5 4 4 4 5 5 5 3 3 3 2 2 2 2 2 4 4 4 3 3 4 7 9 10 9 9 15 16 15 14 14 14 14 14 15 15 15 16 16 16
7 7 6 6 5 4 5 6 6 4 4 4 3 3 3 2 1 1 2 2 4 4 4 4 4 6 8 8 9 11 14 15 14 13 13 13 13 14 14 14 15 16 16
7 7 7 6 6 5 6 6 4 5 4 4 3 3 3 3 4 3 2 2 3 3 4 4 3 4 7 8 7 9 12 13 12 12 12 12 12 13 13 13 13 14 15
6 8 8 7 7 6 6 6 5 6 4 4 3 3 2 2 3 3 3 3 3 3 4 3 4 3 4 5 6 8 11 12 11 11 11 10 10 12 12 12 13 14 14
6 7 7 6 6 6 6 6 6 6 5 5 4 4 3 3 3 2 3 3 3 3 3 2 3 3 3 4 6 8 9 11 11 11 11 10 10 10 10 10 10 11 12
5 6 7 6 6 6 6 5 5 6 6 6 7 5 4 4 3 3 3 3 3 3 3 3 1 2 2 4 7 9 8 10 11 11 10 10 10 10 10 10 10 10 11
5 6 6 7 6 6 5 5 5 6 5 6 6 6 5 4 4 4 3 3 3 4 4 3 2 2 2 3 6 7 7 9 11 11 11 10 10 10 10 10 10 10 10
4 5 5 6 6 6 6 5 5 5 5 5 5 5 5 4 4 3 4 4 3 4 4 3 3 3 2 2 5 5 6 9 10 11 11 11 10 10 10 11 10 10 9
4 4 4 5 5 5 6 5 6 5 5 5 6 5 5 5 4 4 4 4 4 3 4 4 3 2 3 2 3 5 6 7 8 12 13 12 11 11 10 10 10 10 9
4 4 4 4 5 6 5 6 6 6 6 5 5 4 4 5 5 4 4 5 4 4 4 5 4 3 4 4 4 4 4 5 5 9 12 13 12 12 11 11 10 10 10
4 4 4 4 4 5 5 5 5 4 4 4 3 3 4 4 4 4 4 5 5 5 4 4 5 3 3 3 3 3 3 2 4 5 9 10 11 11 11 11 11 10 10
4 4 4 4 4 4 3 3 3 4 4 4 3 3 3 4 4 5 5 5 5 4 4 4 4 3 3 3 2 3 3 3 3 3 3 6 8 10 10 10 11 11 10
5 4 4 4 4 4 3 3 4 5 4 4 3 3 3 4 4 4 4 3 3 4 4 4 4 3 3 2 2 3 3 3 3 2 2 3 4 5 7 9 10 10 11
4 4 4 3 3 4 3 3 3 3 3 4 3 3 4 4 5 5 5 5 4 5 5 4 4 4 4 3 2 3 3 3 3 2 2 4 4 4 4 6 8 11 12
3 3 3 3 2 2 2 1 2 3 3 3 3 3 4 4 2 3 3 5 5 6 6 5 5 5 5 4 4 4 3 3 3 2 2 4 3 4 4 7 11 12 12
3 3 2 2 2 3 3 2 2 3 3 3 3 4 4 3 3 2 3 4 4 4 5 5 5 5 4 3 4 4 4 3 3 3 3 4 4 4 3 4 10 13 12
3 4 3 3 2 2 4 4 3 3 3 3 4 3 3 3 3 3 3 3 3 4 4 3 4 4 4 4 3 2 3 3 4 4 3 3 3 2 2 3 6 11 12
4 3 3 3 3 3 5 5 4 3 3 3 3 2 1 2 2 2 2 3 4 4 3 3 3 3 3 4 4 4 4 4 4 3 3 2 3 2 2 2 2 5 7
Wind_Direction
152 154 162 164 177 175 171 173 183 187 190 202 210 209 223 236 154 140 158 171 176 183 191 197 202 204 207 206 206 206 206 209 212 212 213 213 212 213 213 216 219 221 223
144 148 151 161 173 173 164 168 179 183 195 200 207 216 219 229 181 153 168 183 188 192 197 201 204 207 210 211 212 211 212 214 217 217 219 219 218 219 221 223 224 226 227
148 157 157 166 177 174 165 174 188 195 191 191 200 211 213 215 214 182 177 191 196 199 202 205 207 209 212 215 217 217 217 219 220 221 223 223 222 223 224 226 227 229 229
159 162 168 173 174 178 174 174 184 184 187 193 207 219 211 209 211 205 199 199 195 198 204 209 210 213 216 218 220 221 220 221 222 223 224 224 224 225 227 228 229 229 229
163 170 177 166 174 176 174 184 173 174 183 198 218 216 215 215 211 220 207 204 197 193 193 203 208 212 216 220 221 222 223 224 225 226 226 226 228 230 230 230 230 230 230
173 181 171 170 180 177 183 182 161 166 194 211 228 227 225 225 211 222 214 210 203 198 195 193 198 212 217 220 222 223 226 228 229 230 229 229 230 231 230 231 232 231 230
180 184 175 160 176 184 183 176 169 186 205 218 220 249 255 231 209 205 215 218 212 206 196 184 189 199 206 217 222 224 227 230 232 234 232 232 232 231 231 232 232 232 231
183 184 183 178 175 181 182 184 187 204 219 210 205 219 252 268 241 219 201 209 214 208 204 200 193 194 200 203 214 220 224 229 233 235 234 231 230 231 230 232 232 231 232
188 187 176 183 180 186 183 190 199 206 213 227 222 195 204 231 261 261 224 206 201 208 215 216 199 198 206 201 202 213 219 223 228 232 234 233 232 229 229 233 232 230 230
188 190 187 183 193 196 191 202 198 200 207 224 237 227 226 219 210 281 280 251 216 212 213 231 223 200 200 195 202 205 211 217 223 228 230 231 230 228 228 231 231 229 229
192 193 186 186 195 197 198 209 196 211 216 223 227 226 232 220 220 222 250 264 264 237 212 209 226 211 199 190 194 199 198 206 213 218 224 226 227 225 226 228 229 229 230
195 196 191 191 195 199 201 203 200 215 221 231 246 245 233 229 239 234 234 242 250 259 241 213 210 211 205 188 195 183 195 198 203 208 212 216 221 222 224 227 229 231 233
194 192 195 189 199 203 204 204 205 216 216 222 235 248 247 243 238 229 233 247 265 272 265 240 217 203 206 166 172 178 193 195 198 203 209 213 215 216 218 221 224 226 228
200 187 184 184 195 201 211 204 211 219 213 218 231 232 244 249 247 237 229 225 250 266 257 250 217 192 178 172 179 178 187 192 195 200 206 211 214 215 216 216 219 222 223
212 187 181 187 198 204 212 208 221 225 216 218 229 230 236 246 250 249 240 226 221 246 260 256 240 206 186 174 175 187 185 192 195 200 206 210 214 216 218 217 218 219 219
213 183 185 189 198 204 209 213 222 227 223 228 229 233 238 247 251 251 247 241 227 228 249 252 244 227 217 215 192 191 187 189 199 203 205 208 212 215 219 219 220 216 212
206 193 195 196 203 207 206 211 223 223 222 228 233 231 233 241 252 257 255 253 245 232 243 261 258 231 223 224 195 207 200 192 205 210 208 208 209 211 214 215 213 209 205
206 194 194 204 216 216 208 212 222 224 224 225 227 231 238 244 248 258 262 261 253 236 231 246 254 240 222 213 206 219 216 213 210 210 207 207 207 209 209 208 208 207 205
204 202 197 210 222 226 218 215 217 227 227 221 220 228 240 246 249 254 253 261 264 258 239 238 248 246 234 223 206 225 233 227 241 215 207 211 210 208 208 207 206 205 204
203 206 208 209 216 224 224 219 218 228 231 228 224 226 242 248 247 247 246 253 262 269 263 257 254 255 242 227 200 213 232 231 246 231 202 212 210 207 206 207 205 203 201
210 209 215 213 205 209 221 225 228 229 230 231 226 215 230 235 231 238 248 249 256 263 258 252 248 255 252 224 221 226 235 235 242 225 212 212 196 197 203 212 209 207 204
208 209 209 209 217 221 198 206 223 231 233 232 234 228 232 231 228 221 231 239 240 242 254 254 245 239 238 227 228 244 246 246 250 226 216 237 212 212 205 198 204 203 204
200 204 203 205 205 210 214 206 226 223 233 240 241 247 251 256 250 245 235 231 242 243 236 244 249 245 242 229 223 237 244 253 256 246 237 251 228 222 213 206 201 201 202
184 199 211 196 196 218 197 198 233 235 240 239 239 236 235 254 271 275 271 251 248 256 251 241 247 250 244 229 223 232 241 247 256 255 230 254 246 239 241 202 203 199 199
192 201 197 201 207 194 180 177 191 242 235 243 246 248 237 233 260 267 265 262 264 275 290 284 260 247 228 217 218 237 245 248 265 261 228 242 258 257 244 235 203 198 199
208 211 195 200 198 193 183 183 196 237 241 241 234 225 213 217 249 283 262 265 264 270 281 285 276 262 234 222 212 219 236 249 262 272 246 240 264 266 266 237 189 192 200
Height
1531 1533 1536 1538 1540 1542 1544 1546 1548 1550 1552 1554 1556 1558 1559 1560 1561 1561 1562 1562 1562 1563 1563 1563 1564 1564 1565 1566 1566 1567 1568 1569 1570 1571 1571 1572 1573 1574 1575 1576 1577 1578 1579
1531 1534 1536 1538 1540 1542 1544 1546 1548 1550 1552 1554 1556 1557 1558 1560 1560 1560 1561 1561 1561 1562 1562 1563 1563 1563 1564 1564 1565 1566 1566 1567 1568 1569 1570 1571 1572 1572 1573 1574 1575 1576 1577
1532 1534 1536 1538 1540 1542 1544 1546 1548 1550 1552 1554 1555 1557 1558 1558 1559 1560 1560 1560 1560 1561 1561 1561 1562 1562 1562 1563 1564 1564 1565 1566 1566 1567 1568 1569 1570 1571 1571 1572 1573 1574 1575
1532 1534 1536 1538 1540 1542 1544 1546 1548 1549 1551 1553 1554 1555 1556 1557 1558 1558 1558 1559 1559 1559 1560 1560 1561 1561 1561 1561 1562 1562 1563 1564 1564 1565 1566 1567 1567 1568 1569 1570 1570 1571 1572
1532 1534 1536 1538 1540 1542 1543 1545 1547 1549 1550 1552 1553 1554 1555 1556 1556 1557 1557 1558 1558 1558 1558 1559 1559 1559 1559 1560 1560 1560 1561 1561 1562 1562 1563 1564 1565 1565 1566 1567 1568 1568 1569
1532 1534 1535 1537 1539 1541 1543 1545 1546 1547 1549 1550 1552 1553 1553 1554 1555 1555 1556 1557 1557 1557 1557 1557 1557 1557 1557 1557 1558 1558 1559 1559 1559 1560 1560 1561 1562 1563 1563 1564 1564 1565 1566
1531 1533 1535 1537 1538 1540 1542 1544 1545 1546 1548 1549 1551 1551 1552 1552 1553 1553 1554 1555 1555 1556 1556 1555 1555 1555 1555 1555 1556 1556 1556 1556 1557 1557 1558 1558 1559 1560 1560 1561 1561 1562 1562
1531 1533 1534 1536 1537 1539 1540 1542 1544 1545 1546 1548 1549 1550 1550 1551 1551 1551 1552 1553 1553 1554 1554 1554 1553 1553 1553 1553 1553 1553 1553 1554 1554 1554 1554 1555 1556 1556 1557 1557 1557 1558 1559
1530 1532 1533 1535 1536 1538 1539 1541 1542 1543 1544 1546 1547 1549 1549 1549 1549 1549 1550 1550 1551 1551 1551 1552 1551 1551 1551 1550 1550 1550 1550 1550 1550 1551 1551 1552 1552 1553 1553 1553 1554 1554 1555
1529 1530 1532 1533 1535 1536 1538 1539 1540 1542 1543 1544 1545 1546 1547 1547 1548 1547 1548 1548 1548 1548 1548 1549 1548 1548 1548 1548 1547 1547 1547 1547 1547 1548 1548 1548 1549 1549 1550 1550 1550 1550 1551
1527 1529 1530 1531 1533 1534 1536 1537 1538 1540 1541 1542 1543 1544 1544 1545 1545 1546 1545 1545 1545 1545 1546 1546 1546 1545 1545 1545 1544 1544 1544 1544 1544 1544 1544 1545 1545 1546 1546 1546 1546 1547 1547
1525 1526 1528 1529 1530 1532 1533 1535 1536 1537 1538 1539 1540 1541 1542 1543 1543 1543 1543 1543 1542 1542 1543 1543 1543 1543 1543 1542 1541 1541 1541 1541 1541 1541 1541 1541 1542 1542 1542 1543 1543 1543 1543
1522 1524 1525 1526 1527 1529 1530 1532 1533 1534 1535 1536 1537 1538 1539 1540 1540 1541 1541 1540 1540 1539 1539 1539 1540 1540 1539 1538 1538 1538 1538 1538 1538 1538 1538 1538 1538 1538 1538 1539 1539 1539 1539
1520 1521 1522 1524 1525 1526 1528 1529 1530 1531 1532 1533 1534 1535 1536 1536 1537 1537 1538 1538 1537 1537 1537 1536 1536 1536 1536 1535 1535 1534 1534 1535 1535 1535 1535 1535 1535 1535 1535 1535 1535 1536 1536
1517 1518 1519 1520 1522 1523 1524 1526 1527 1528 1529 1530 1531 1532 1532 1533 1533 1533 1534 1534 1535 1534 1533 1533 1533 1533 1533 1533 1532 1532 1531 1531 1532 1532 1532 1532 1532 1531 1532 1532 1532 1532 1532
1514 1515 1516 1517 1519 1520 1521 1523 1523 1524 1525 1526 1527 1528 1528 1529 1530 1530 1530 1531 1531 1531 1530 1529 1529 1529 1529 1529 1529 1529 1528 1528 1528 1528 1528 1528 1528 1528 1528 1528 1528 1528 1529
1511 1512 1513 1514 1516 1517 1518 1519 1520 1521 1521 1522 1523 1524 1525 1526 1526 1526 1527 1527 1527 1527 1526 1525 1526 1526 1526 1526 1525 1526 1525 1525 1525 1525 1525 1525 1525 1525 1525 1525 1525 1525 1525
1507 1509 1510 1511 1512 1514 1514 1515 1516 1517 1518 1519 1520 1520 1521 1522 1522 1523 1523 1523 1523 1524 1523 1522 1521 1522 1522 1522 1522 1522 1522 1521 1521 1521 1521 1521 1521 1521 1521 1521 1521 1521 1521
1504 1505 1507 1508 1509 1510 1511 1512 1513 1514 1514 1515 1516 1517 1517 1518 1518 1518 1519 1519 1519 1519 1519 1518 1517 1518 1518 1518 1517 1518 1518 1518 1518 1517 1517 1517 1517 1517 1517 1517 1517 1517 1517
1501 1502 1503 1505 1506 1507 1508 1508 1509 1510 1511 1512 1512 1513 1514 1514 1514 1515 1514 1515 1515 1515 1514 1514 1513 1513 1513 1513 1514 1513 1513 1513 1514 1514 1513 1513 1513 1513 1513 1513 1513 1513 1513
1497 1499 1500 1502 1502 1503 1504 1504 1505 1506 1507 1507 1508 1509 1509 1510 1510 1510 1510 1510 1510 1510 1510 1509 1509 1509 1509 1509 1509 1509 1510 1509 1509 1509 1509 1509 1508 1508 1508 1508 1508 1508 1508
1494 1495 1496 1498 1499 1499 1500 1501 1502 1503 1503 1504 1504 1505 1505 1506 1506 1506 1506 1506 1506 1506 1505 1505 1505 1504 1504 1505 1505 1505 1506 1506 1505 1506 1505 1504 1504 1504 1504 1503 1504 1504 1504
1490 1491 1493 1494 1495 1496 1497 1498 1498 1499 1499 1500 1501 1501 1502 1502 1502 1501 1501 1501 1501 1501 1501 1501 1500 1500 1500 1500 1501 1501 1501 1501 1501 1502 1502 1500 1499 1499 1499 1499 1499 1500 1500
1486 1487 1488 1490 1491 1492 1493 1494 1494 1495 1496 1496 1497 1497 1498 1497 1497 1497 1497 1496 1496 1497 1497 1496 1496 1496 1496 1496 1496 1497 1497 1497 1497 1497 1496 1496 1495 1495 1495 1495 1495 1495 1496
1483 1484 1485 1485 1486 1487 1489 1490 1491 1491 1491 1492 1493 1493 1493 1493 1493 1493 1493 1492 1491 1492 1492 1492 1492 1492 1492 1492 1492 1492 1492 1492 1491 1492 1492 1491 1490 1491 1490 1490 1490 1491 1491
1480 1481 1481 1482 1483 1484 1484 1486 1487 1487 1488 1488 1488 1489 1489 1489 1489 1489 1489 1488 1487 1487 1487 1487 1487 1487 1487 1487 1487 1488 1488 1487 1487 1486 1487 1487 1486 1486 1486 1486 1486 1487 1487